Location: ???? ??
(36.0534°N, 43.5630°E)
Time: 10:02:45
(UTC+00:00)

Cosmos 1743 - Pass Details

Date: 18 September 2019
Orbit: 512 x 527 km, 82.6° (Epoch: 14 October)

Event Time Altitude Azimuth Distance (km) Brightness Sun altitude
Rises 15:30:18 0° 197° (SSW) 2,620 6.4 -5.1°
Reaches altitude 10° 15:32:27 10° 202° (SSW) 1,740 5.6 -5.5°
Maximum altitude 15:36:10 50° 279° (W) 666 3.8 -6.2°
Drops below altitude 10° 15:39:56 10° 356° (N) 1,762 5.6 -7.0°
Sets 15:42:08 0° 1° (N) 2,658 6.4 -7.4°
